Location: Normandy Village
(37.8755°N, 122.2655°W)
Time: 20:55:12
(UTC+00:00)

ATLAS 3B R/B - Pass Details

Date: 13 December 2019
Orbit: 1027 x 1168 km, 63.8° (Epoch: 19 January)

Event Time Altitude Azimuth Distance (km) Brightness Sun altitude
Rises 01:16:30 0° 317° (NW) 3,814 5.8 -5.5°
Reaches altitude 10° 01:19:24 10° 308° (NW) 2,873 5.4 -6.0°
Maximum altitude 01:25:11 31° 249° (WSW) 1,784 4.9 -7.0°
Drops below altitude 10° 01:31:08 10° 190° (S) 2,942 5.5 -8.1°
Sets 01:34:09 0° 180° (S) 3,919 6.0 -8.6°
